Location: Newark
(40.7066°N, 111.8219°W)
Time: 07:22:01
(UTC+00:00)

deb Explorer IX - Pass Details

Date: 22 November 2019
Orbit: 545 x 1105 km, 38.8° (Epoch: 08 December)

Event Time Altitude Azimuth Distance (km) Brightness Sun altitude
Exits shadow 13:12:59 11° 247° (WSW) 2,135 ? -13.0°
Maximum altitude 13:15:21 15° 219° (SW) 1,833 ? -12.6°
Drops below altitude 10° 13:18:00 10° 184° (S) 2,052 ? -12.1°
Sets 13:21:07 0° 160° (SSE) 2,861 ? -11.6°
